• în Republica Moldova
  • Lista ţărilor
  • Pe 7 zile
  • Temperatura apei
  • Hartă satelitară
  • Meteo pe hartă
  • Widget-uri
  • user-avatar
    Intrare

    Meteo pe oră la Darwin

    Astăzi, 27 Mai, Duminică

    Timp Temperatura Precipitaţii Vânt Presiune Umiditate
    00:00 +26°C° 0 mm 2 m/s 759 mmHg 76%
    01:00 +26°C° 0 mm 2 m/s 759 mmHg 77%
    02:00 +25°C° 0 mm 3 m/s 759 mmHg 77%
    03:00 +25°C° 0 mm 2 m/s 758 mmHg 79%
    04:00 +25°C° 0 mm 3 m/s 759 mmHg 77%
    05:00 +24°C° 0 mm 3 m/s 759 mmHg 74%
    06:00 +24°C° 0 mm 3 m/s 759 mmHg 72%
    07:00 +26°C° 0 mm 3 m/s 759 mmHg 66%
    08:00 +28°C° 0 mm 3 m/s 759 mmHg 61%
    09:00 +30°C° 0 mm 3 m/s 759 mmHg 56%
    10:00 +33°C° 0 mm 3 m/s 759 mmHg 49%
    11:00 +34°C° 0 mm 3 m/s 759 mmHg 42%
    12:00 +36°C° 0 mm 3 m/s 758 mmHg 35%
    13:00 +37°C° 0 mm 3 m/s 758 mmHg 34%
    14:00 +37°C° 0 mm 3 m/s 757 mmHg 32%
    15:00 +37°C° 0 mm 3 m/s 757 mmHg 30%
    16:00 +35°C° 0 mm 3 m/s 757 mmHg 37%
    17:00 +33°C° 0 mm 3 m/s 757 mmHg 44%
    18:00 +30°C° 0 mm 3 m/s 757 mmHg 50%
    19:00 +29°C° 0 mm 3 m/s 757 mmHg 57%
    20:00 +28°C° 0 mm 2 m/s 758 mmHg 64%
    21:00 +27°C° 0 mm 2 m/s 758 mmHg 71%
    22:00 +27°C° 0 mm 2 m/s 759 mmHg 74%
    23:00 +26°C° 0 mm 2 m/s 759 mmHg 77%

    Mâine, 28 Mai, Luni

    Timp Temperatura Precipitaţii Vânt Presiune Umiditate
    00:00 +26°C° 0 mm 1 m/s 759 mmHg 80%
    01:00 +26°C° 0,1 mm 2 m/s 759 mmHg 82%
    02:00 +26°C° 0,1 mm 2 m/s 758 mmHg 83%
    03:00 +26°C° 0,1 mm 2 m/s 758 mmHg 84%
    04:00 +25°C° 0,2 mm 3 m/s 758 mmHg 84%
    05:00 +25°C° 0,2 mm 3 m/s 758 mmHg 84%
    06:00 +25°C° 0,2 mm 4 m/s 758 mmHg 84%
    07:00 +26°C° 0 mm 4 m/s 759 mmHg 76%
    08:00 +28°C° 0 mm 4 m/s 759 mmHg 67%
    09:00 +29°C° 0 mm 5 m/s 759 mmHg 58%
    10:00 +32°C° 0 mm 4 m/s 759 mmHg 50%
    11:00 +34°C° 0 mm 4 m/s 759 mmHg 41%
    12:00 +36°C° 0 mm 4 m/s 758 mmHg 32%
    13:00 +37°C° 0 mm 4 m/s 758 mmHg 31%
    14:00 +37°C° 0 mm 3 m/s 757 mmHg 30%
    15:00 +37°C° 0 mm 3 m/s 756 mmHg 29%
    16:00 +36°C° 0 mm 3 m/s 757 mmHg 34%
    17:00 +34°C° 0 mm 2 m/s 757 mmHg 38%
    18:00 +31°C° 0 mm 2 m/s 757 mmHg 43%
    19:00 +30°C° 0 mm 2 m/s 757 mmHg 48%
    20:00 +28°C° 0 mm 2 m/s 758 mmHg 52%
    21:00 +27°C° 0 mm 2 m/s 759 mmHg 57%
    22:00 +27°C° 0 mm 2 m/s 759 mmHg 60%
    23:00 +26°C° 0 mm 1 m/s 759 mmHg 63%

    Poimâine, 29 Mai, Marţi

    Timp Temperatura Precipitaţii Vânt Presiune Umiditate
    00:00 +26°C° 0 mm 1 m/s 759 mmHg 67%
    01:00 +26°C° 0 mm 1 m/s 759 mmHg 65%
    02:00 +25°C° 0 mm 2 m/s 759 mmHg 63%
    03:00 +25°C° 0 mm 2 m/s 758 mmHg 61%
    04:00 +25°C° 0 mm 2 m/s 758 mmHg 63%
    05:00 +25°C° 0 mm 2 m/s 759 mmHg 64%
    06:00 +24°C° 0 mm 3 m/s 759 mmHg 65%
    07:00 +26°C° 0 mm 3 m/s 759 mmHg 59%
    08:00 +28°C° 0 mm 4 m/s 759 mmHg 53%
    09:00 +29°C° 0 mm 5 m/s 760 mmHg 47%
    10:00 +32°C° 0 mm 5 m/s 759 mmHg 41%
    11:00 +34°C° 0 mm 5 m/s 759 mmHg 35%
    12:00 +36°C° 0 mm 5 m/s 758 mmHg 30%
    13:00 +36°C° 0 mm 4 m/s 758 mmHg 29%
    14:00 +37°C° 0 mm 4 m/s 757 mmHg 29%
    15:00 +37°C° 0 mm 3 m/s 756 mmHg 28%
    16:00 +36°C° 0 mm 3 m/s 756 mmHg 32%
    17:00 +34°C° 0 mm 2 m/s 757 mmHg 35%
    18:00 +31°C° 0 mm 2 m/s 757 mmHg 38%
    19:00 +30°C° 0 mm 2 m/s 757 mmHg 40%
    20:00 +29°C° 0 mm 2 m/s 758 mmHg 42%
    21:00 +28°C° 0 mm 2 m/s 759 mmHg 44%
    22:00 +28°C° 0 mm 2 m/s 759 mmHg 46%
    23:00 +28°C° 0 mm 3 m/s 759 mmHg 48%

    30 Mai, Miercuri

    Timp Temperatura Precipitaţii Vânt Presiune Umiditate
    00:00 +27°C° 0 mm 3 m/s 759 mmHg 50%
    01:00 +27°C° 0 mm 4 m/s 759 mmHg 52%
    02:00 +26°C° 0 mm 4 m/s 759 mmHg 54%
    03:00 +26°C° 0 mm 4 m/s 758 mmHg 56%
    04:00 +25°C° 0 mm 5 m/s 759 mmHg 57%
    05:00 +24°C° 0 mm 6 m/s 759 mmHg 58%
    06:00 +24°C° 0 mm 6 m/s 759 mmHg 59%
    07:00 +26°C° 0 mm 7 m/s 760 mmHg 55%
    08:00 +28°C° 0 mm 7 m/s 760 mmHg 50%
    09:00 +29°C° 0 mm 8 m/s 761 mmHg 46%
    10:00 +32°C° 0 mm 7 m/s 760 mmHg 41%
    11:00 +33°C° 0 mm 7 m/s 759 mmHg 37%
    12:00 +35°C° 0 mm 6 m/s 759 mmHg 33%
    13:00 +35°C° 0 mm 6 m/s 758 mmHg 32%
    14:00 +36°C° 0 mm 5 m/s 757 mmHg 32%
    15:00 +36°C° 0 mm 4 m/s 757 mmHg 32%
    16:00 +35°C° 0 mm 4 m/s 757 mmHg 35%
    17:00 +33°C° 0 mm 3 m/s 757 mmHg 39%
    18:00 +31°C° 0 mm 3 m/s 757 mmHg 43%
    19:00 +30°C° 0 mm 3 m/s 758 mmHg 45%
    20:00 +30°C° 0 mm 3 m/s 758 mmHg 46%
    21:00 +30°C° 0 mm 3 m/s 759 mmHg 47%
    22:00 +29°C° 0 mm 5 m/s 759 mmHg 50%
    23:00 +28°C° 0 mm 6 m/s 759 mmHg 53%

    31 Mai, Joi

    Timp Temperatura Precipitaţii Vânt Presiune Umiditate
    00:00 +28°C° 0 mm 7 m/s 760 mmHg 55%
    01:00 +27°C° 0 mm 7 m/s 759 mmHg 58%
    02:00 +27°C° 0 mm 7 m/s 759 mmHg 60%
    03:00 +26°C° 0 mm 7 m/s 759 mmHg 62%
    04:00 +26°C° 0 mm 7 m/s 759 mmHg 60%
    05:00 +24°C° 0 mm 7 m/s 759 mmHg 58%
    06:00 +24°C° 0 mm 7 m/s 760 mmHg 56%
    07:00 +26°C° 0 mm 8 m/s 760 mmHg 50%
    08:00 +28°C° 0 mm 8 m/s 761 mmHg 44%
    09:00 +29°C° 0 mm 8 m/s 761 mmHg 38%
    10:00 +31°C° 0 mm 8 m/s 760 mmHg 36%
    11:00 +33°C° 0 mm 7 m/s 760 mmHg 34%
    12:00 +34°C° 0 mm 6 m/s 759 mmHg 31%
    13:00 +35°C° 0 mm 6 m/s 758 mmHg 31%
    14:00 +35°C° 0 mm 5 m/s 758 mmHg 31%
    15:00 +36°C° 0 mm 4 m/s 757 mmHg 31%
    16:00 +34°C° 0 mm 4 m/s 757 mmHg 35%
    17:00 +33°C° 0 mm 3 m/s 757 mmHg 39%
    18:00 +30°C° 0 mm 3 m/s 757 mmHg 43%
    19:00 +29°C° 0 mm 2 m/s 758 mmHg 46%
    20:00 +28°C° 0 mm 2 m/s 758 mmHg 48%
    21:00 +28°C° 0 mm 2 m/s 759 mmHg 50%
    22:00 +28°C° 0 mm 3 m/s 759 mmHg 53%
    23:00 +28°C° 0 mm 4 m/s 759 mmHg 56%

    1 Iunie, Vineri

    Timp Temperatura Precipitaţii Vânt Presiune Umiditate
    00:00 +28°C° 0 mm 5 m/s 759 mmHg 58%
    01:00 +27°C° 0,1 mm 5 m/s 758 mmHg 62%
    02:00 +26°C° 0,1 mm 6 m/s 758 mmHg 66%
    03:00 +24°C° 0,1 mm 6 m/s 758 mmHg 70%
    04:00 +24°C° 0 mm 6 m/s 758 mmHg 70%
    05:00 +23°C° 0 mm 6 m/s 759 mmHg 70%
    06:00 +23°C° 0 mm 6 m/s 759 mmHg 70%
    07:00 +24°C° 0 mm 6 m/s 759 mmHg 65%
    08:00 +27°C° 0 mm 6 m/s 760 mmHg 59%
    09:00 +28°C° 0 mm 7 m/s 760 mmHg 54%
    10:00 +30°C° 0 mm 6 m/s 759 mmHg 49%
    11:00 +33°C° 0 mm 6 m/s 759 mmHg 43%
    12:00 +34°C° 0 mm 5 m/s 758 mmHg 38%
    13:00 +35°C° 0 mm 5 m/s 758 mmHg 37%
    14:00 +35°C° 0 mm 4 m/s 757 mmHg 37%
    15:00 +36°C° 0 mm 4 m/s 757 mmHg 36%
    16:00 +35°C° 0 mm 3 m/s 757 mmHg 40%
    17:00 +33°C° 0 mm 3 m/s 757 mmHg 44%
    18:00 +31°C° 0 mm 2 m/s 757 mmHg 48%
    19:00 +30°C° 0 mm 2 m/s 758 mmHg 50%
    20:00 +30°C° 0 mm 2 m/s 759 mmHg 52%
    21:00 +29°C° 0 mm 2 m/s 759 mmHg 54%
    22:00 +29°C° 0,1 mm 2 m/s 759 mmHg 53%
    23:00 +28°C° 0,1 mm 2 m/s 759 mmHg 52%
    Arată mai mult